SAS2141 ESSA-ESGG

Flight info

Callsign SAS2141
Flight time 0h 48m
Altitude 34000
Route ARS N623 BEDLA N866 LAPSI DCT MOXAM
Aircraft A320/M-SDE3FGHIRWY/LB1

Departure

Time 2026-05-07 18:55
Airport Stockholm-Arlanda Airport (ESSA)

Arrival

Time 2026-05-07 19:43
Airport Göteborg Landvetter Airport (ESGG)
Time Latitude Longitude Altitude Speed Heading
2026-05-07 18:08 59.65366 17.92952 111 ft 0 kts 139°
2026-05-07 18:39 59.65381 17.92924 112 ft 4 kts 127°
2026-05-07 18:39 59.65393 17.92880 112 ft 4 kts 96°
2026-05-07 18:40 59.65392 17.92846 111 ft 0 kts 70°
2026-05-07 18:42 59.65392 17.92851 111 ft 2 kts 70°
2026-05-07 18:43 59.65407 17.92924 111 ft 8 kts 66°
2026-05-07 18:43 59.65457 17.92943 112 ft 8 kts 319°
2026-05-07 18:43 59.65457 17.92814 110 ft 11 kts 250°
2026-05-07 18:43 59.65427 17.92678 109 ft 11 kts 258°
2026-05-07 18:44 59.65491 17.92565 106 ft 17 kts 332°
2026-05-07 18:44 59.65618 17.92486 103 ft 21 kts 345°
2026-05-07 18:44 59.65759 17.92422 105 ft 17 kts
2026-05-07 18:44 59.65868 17.92455 107 ft 11 kts 360°
2026-05-07 18:45 59.65912 17.92359 110 ft 7 kts 280°
2026-05-07 18:45 59.65915 17.92323 111 ft 1 kts 280°
2026-05-07 18:45 59.65915 17.92318 111 ft 0 kts 280°
2026-05-07 18:48 59.65915 17.92316 111 ft 0 kts 280°
2026-05-07 18:49 59.65917 17.92295 111 ft 4 kts 280°
2026-05-07 18:49 59.65924 17.92215 114 ft 6 kts 280°
2026-05-07 18:49 59.65929 17.92127 115 ft 6 kts 257°
2026-05-07 18:49 59.65914 17.92114 113 ft 0 kts 187°
2026-05-07 18:54 59.65823 17.92083 113 ft 44 kts 191°
2026-05-07 18:54 59.65272 17.91883 106 ft 113 kts 190°
2026-05-07 18:54 59.64329 17.91553 208 ft 151 kts 188°
2026-05-07 18:55 59.63300 17.91176 858 ft 150 kts 188°
2026-05-07 18:55 59.62237 17.90797 1344 ft 166 kts 189°
2026-05-07 18:55 59.61135 17.89793 1690 ft 190 kts 226°
2026-05-07 18:55 59.60437 17.87395 2069 ft 214 kts 240°
2026-05-07 18:56 59.59700 17.84765 2802 ft 223 kts 238°
2026-05-07 18:56 59.58894 17.82076 3665 ft 228 kts 238°
2026-05-07 18:56 59.58073 17.79331 4410 ft 242 kts 241°
2026-05-07 18:56 59.57274 17.76276 5025 ft 259 kts 244°
2026-05-07 18:57 59.56738 17.72893 6007 ft 261 kts 266°
2026-05-07 18:57 59.56814 17.69325 6995 ft 262 kts 275°
2026-05-07 18:57 59.56920 17.65711 7902 ft 266 kts 274°
2026-05-07 18:57 59.57005 17.62049 8866 ft 268 kts 273°
2026-05-07 18:58 59.57073 17.58378 9892 ft 267 kts 274°
2026-05-07 18:58 59.57143 17.54680 10576 ft 278 kts 273°
2026-05-07 18:58 59.56913 17.50751 10923 ft 302 kts 255°
2026-05-07 18:58 59.56189 17.46778 11540 ft 311 kts 252°
2026-05-07 18:59 59.55447 17.42757 12325 ft 314 kts 252°
2026-05-07 18:59 59.54694 17.38769 13117 ft 317 kts 252°
2026-05-07 18:59 59.53916 17.34679 13912 ft 320 kts 252°
2026-05-07 18:59 59.53131 17.30561 14616 ft 322 kts 252°
2026-05-07 19:00 59.52343 17.26413 15333 ft 324 kts 252°
2026-05-07 19:00 59.51551 17.22244 16046 ft 326 kts 252°
2026-05-07 19:00 59.50754 17.18045 16756 ft 328 kts 252°
2026-05-07 19:00 59.49955 17.13824 17479 ft 330 kts 252°
2026-05-07 19:01 59.49150 17.09588 18194 ft 332 kts 252°
2026-05-07 19:01 59.48334 17.05314 18843 ft 334 kts 252°
2026-05-07 19:01 59.47523 17.01074 19466 ft 337 kts 252°
2026-05-07 19:01 59.46680 16.96692 20104 ft 339 kts 252°
2026-05-07 19:02 59.45851 16.92395 20734 ft 342 kts 252°
2026-05-07 19:02 59.45007 16.88011 21349 ft 344 kts 252°
2026-05-07 19:02 59.44157 16.83591 21942 ft 347 kts 252°
2026-05-07 19:02 59.43300 16.79142 22537 ft 350 kts 252°
2026-05-07 19:03 59.42421 16.74601 23148 ft 352 kts 252°
2026-05-07 19:03 59.41542 16.70086 23741 ft 355 kts 252°
2026-05-07 19:03 59.40665 16.65594 24228 ft 358 kts 252°
2026-05-07 19:03 59.39771 16.61015 24684 ft 361 kts 252°
2026-05-07 19:04 59.38867 16.56397 25120 ft 364 kts 252°
2026-05-07 19:04 59.37957 16.51747 25589 ft 367 kts 252°
2026-05-07 19:04 59.37038 16.47060 26040 ft 369 kts 252°
2026-05-07 19:04 59.36111 16.42346 26502 ft 372 kts 252°
2026-05-07 19:05 59.35172 16.37600 26951 ft 374 kts 252°
2026-05-07 19:05 59.34224 16.32830 27396 ft 377 kts 252°
2026-05-07 19:05 59.33268 16.28032 27820 ft 379 kts 252°
2026-05-07 19:05 59.32307 16.23198 28248 ft 382 kts 252°
2026-05-07 19:06 59.31343 16.18351 28664 ft 384 kts 252°
2026-05-07 19:06 59.29406 16.08636 29479 ft 388 kts 252°
2026-05-07 19:06 59.28416 16.03702 29880 ft 391 kts 252°
2026-05-07 19:07 59.27416 15.98740 30270 ft 393 kts 252°
2026-05-07 19:07 59.26407 15.93752 30614 ft 396 kts 252°
2026-05-07 19:07 59.25393 15.88739 30951 ft 398 kts 252°
2026-05-07 19:07 59.24368 15.83699 31284 ft 400 kts 252°
2026-05-07 19:08 59.23334 15.78636 31618 ft 403 kts 252°
2026-05-07 19:08 59.22297 15.73552 31998 ft 403 kts 252°
2026-05-07 19:08 59.21271 15.68527 32363 ft 404 kts 252°
2026-05-07 19:08 59.20225 15.63427 32722 ft 406 kts 252°
2026-05-07 19:09 59.19173 15.58322 33141 ft 406 kts 252°
2026-05-07 19:09 59.18121 15.53218 33589 ft 405 kts 252°
2026-05-07 19:09 59.17070 15.48125 34017 ft 405 kts 252°
2026-05-07 19:09 59.16017 15.43048 34122 ft 400 kts 252°
2026-05-07 19:10 59.13959 15.33158 34120 ft 391 kts 252°
2026-05-07 19:10 59.11923 15.23368 34113 ft 390 kts 252°
2026-05-07 19:11 59.09898 15.13669 34120 ft 389 kts 252°
2026-05-07 19:11 59.07847 15.03925 34119 ft 389 kts 252°
2026-05-07 19:12 59.05781 14.94194 34136 ft 389 kts 252°
2026-05-07 19:12 59.03709 14.84474 34036 ft 388 kts 252°
2026-05-07 19:13 59.02683 14.79684 33738 ft 382 kts 251°
2026-05-07 19:13 59.01668 14.74955 33335 ft 377 kts 251°
2026-05-07 19:13 59.00679 14.70355 32930 ft 373 kts 251°
2026-05-07 19:13 58.99686 14.65742 32524 ft 369 kts 251°
2026-05-07 19:14 58.98701 14.61165 32118 ft 366 kts 251°
2026-05-07 19:14 58.97723 14.56625 31725 ft 363 kts 251°
2026-05-07 19:14 58.96752 14.52127 31331 ft 361 kts 251°
2026-05-07 19:14 58.95786 14.47666 30951 ft 358 kts 251°
2026-05-07 19:15 58.94820 14.43230 30574 ft 356 kts 251°
2026-05-07 19:15 58.93854 14.38818 30192 ft 355 kts 251°
2026-05-07 19:15 58.92905 14.34487 29759 ft 353 kts 251°
2026-05-07 19:15 58.91837 14.30205 29369 ft 355 kts 243°
2026-05-07 19:16 58.90423 14.26285 28985 ft 356 kts 238°
2026-05-07 19:16 58.88951 14.22459 28593 ft 354 kts 238°
2026-05-07 19:16 58.87482 14.18657 28225 ft 351 kts 238°
2026-05-07 19:16 58.86024 14.14895 27839 ft 349 kts 238°
2026-05-07 19:17 58.84571 14.11156 27452 ft 347 kts 238°
2026-05-07 19:17 58.83126 14.07442 27041 ft 345 kts 237°
2026-05-07 19:17 58.81691 14.03750 26672 ft 342 kts 237°
2026-05-07 19:17 58.80286 14.00134 26296 ft 340 kts 237°
2026-05-07 19:18 58.78872 13.96501 25888 ft 338 kts 237°
2026-05-07 19:18 58.77458 13.92878 25487 ft 337 kts 237°
2026-05-07 19:18 58.76049 13.89282 25082 ft 335 kts 237°
2026-05-07 19:18 58.74648 13.85702 24669 ft 334 kts 237°
2026-05-07 19:19 58.73251 13.82133 24258 ft 333 kts 237°
2026-05-07 19:19 58.71859 13.78583 23844 ft 332 kts 237°
2026-05-07 19:19 58.70467 13.75039 23383 ft 331 kts 236°
2026-05-07 19:19 58.69098 13.71564 22968 ft 329 kts 236°
2026-05-07 19:20 58.67704 13.68031 22558 ft 326 kts 236°
2026-05-07 19:20 58.66361 13.64626 22152 ft 323 kts 236°
2026-05-07 19:20 58.65005 13.61197 21751 ft 321 kts 236°
2026-05-07 19:20 58.63656 13.57792 21352 ft 319 kts 236°
2026-05-07 19:21 58.62317 13.54416 20949 ft 317 kts 236°
2026-05-07 19:21 58.60983 13.51056 20552 ft 316 kts 236°
2026-05-07 19:21 58.59654 13.47714 20150 ft 314 kts 235°
2026-05-07 19:21 58.58331 13.44395 19764 ft 313 kts 235°
2026-05-07 19:22 58.57008 13.41086 19368 ft 312 kts 235°
2026-05-07 19:22 58.55690 13.37791 18975 ft 311 kts 235°
2026-05-07 19:22 58.54395 13.34550 18589 ft 311 kts 235°
2026-05-07 19:22 58.53475 13.32374 18311 ft 312 kts 230°
2026-05-07 19:23 58.52330 13.30327 18017 ft 313 kts 221°
2026-05-07 19:23 58.50562 13.27898 17611 ft 312 kts 218°
2026-05-07 19:23 58.48795 13.25518 17226 ft 310 kts 218°
2026-05-07 19:23 58.47039 13.23148 16842 ft 308 kts 218°
2026-05-07 19:24 58.45295 13.20792 16456 ft 306 kts 218°
2026-05-07 19:24 58.43559 13.18450 16082 ft 305 kts 218°
2026-05-07 19:24 58.41829 13.16118 15707 ft 304 kts 218°
2026-05-07 19:24 58.40133 13.13832 15327 ft 302 kts 218°
2026-05-07 19:25 58.38418 13.11522 14952 ft 301 kts 218°
2026-05-07 19:25 58.36706 13.09220 14586 ft 301 kts 218°
2026-05-07 19:25 58.34999 13.06930 14212 ft 300 kts 217°
2026-05-07 19:25 58.33303 13.04661 13836 ft 299 kts 217°
2026-05-07 19:26 58.31602 13.02393 13436 ft 298 kts 217°
2026-05-07 19:26 58.29910 13.00139 13065 ft 296 kts 217°
2026-05-07 19:26 58.28226 12.97900 12697 ft 294 kts 217°
2026-05-07 19:26 58.26553 12.95679 12326 ft 293 kts 217°
2026-05-07 19:27 58.24887 12.93470 11957 ft 292 kts 216°
2026-05-07 19:27 58.23252 12.91297 11611 ft 290 kts 217°
2026-05-07 19:27 58.21611 12.89099 11356 ft 288 kts 217°
2026-05-07 19:27 58.19995 12.86884 11100 ft 286 kts 221°
2026-05-07 19:28 58.18529 12.84341 10850 ft 285 kts 225°
2026-05-07 19:28 58.17115 12.81723 10602 ft 284 kts 225°
2026-05-07 19:28 58.15692 12.79138 10361 ft 283 kts 221°
2026-05-07 19:28 58.14178 12.76767 10110 ft 282 kts 221°
2026-05-07 19:29 58.12674 12.74388 9863 ft 281 kts 221°
2026-05-07 19:29 58.11180 12.72013 9729 ft 281 kts 221°
2026-05-07 19:29 58.09704 12.69669 9595 ft 280 kts 221°
2026-05-07 19:29 58.08215 12.67304 9456 ft 280 kts 221°
2026-05-07 19:30 58.06723 12.64940 9324 ft 279 kts 220°
2026-05-07 19:30 58.05237 12.62594 9189 ft 278 kts 220°
2026-05-07 19:30 58.03754 12.60255 9056 ft 277 kts 220°
2026-05-07 19:30 58.02271 12.57921 8922 ft 277 kts 220°
2026-05-07 19:31 58.00794 12.55602 8790 ft 276 kts 220°
2026-05-07 19:31 57.99319 12.53288 8658 ft 276 kts 220°
2026-05-07 19:31 57.97850 12.50980 8526 ft 275 kts 220°
2026-05-07 19:31 57.96384 12.48677 8396 ft 275 kts 220°
2026-05-07 19:32 57.94937 12.46409 8266 ft 273 kts 220°
2026-05-07 19:32 57.93477 12.44127 8136 ft 273 kts 220°
2026-05-07 19:32 57.92023 12.41857 7998 ft 272 kts 220°
2026-05-07 19:32 57.90570 12.39588 7881 ft 272 kts 220°
2026-05-07 19:33 57.89118 12.37324 7731 ft 271 kts 219°
2026-05-07 19:33 57.87668 12.35067 7616 ft 271 kts 219°
2026-05-07 19:33 57.86221 12.32820 7497 ft 270 kts 219°
2026-05-07 19:33 57.84774 12.30578 7359 ft 269 kts 219°
2026-05-07 19:34 57.83360 12.28390 7238 ft 268 kts 219°
2026-05-07 19:34 57.81921 12.26160 7110 ft 268 kts 219°
2026-05-07 19:34 57.80487 12.23938 6984 ft 267 kts 219°
2026-05-07 19:34 57.79054 12.21716 6868 ft 267 kts 219°
2026-05-07 19:35 57.77621 12.19501 6741 ft 267 kts 219°
2026-05-07 19:35 57.76191 12.17296 6639 ft 267 kts 219°
2026-05-07 19:35 57.74702 12.15371 6515 ft 266 kts 207°
2026-05-07 19:35 57.73043 12.13831 6382 ft 265 kts 206°
2026-05-07 19:36 57.71389 12.12311 6250 ft 265 kts 206°
2026-05-07 19:36 57.69758 12.10812 6121 ft 264 kts 206°
2026-05-07 19:36 57.68118 12.09302 5988 ft 264 kts 206°
2026-05-07 19:36 57.66471 12.07779 5857 ft 264 kts 206°
2026-05-07 19:37 57.64828 12.06261 5713 ft 263 kts 206°
2026-05-07 19:37 57.63966 12.05467 5643 ft 263 kts 206°
2026-05-07 19:37 57.62330 12.03957 5504 ft 262 kts 206°
2026-05-07 19:37 57.60658 12.02567 5374 ft 264 kts 198°
2026-05-07 19:38 57.58903 12.01538 5245 ft 264 kts 197°
2026-05-07 19:38 57.57136 12.00616 5091 ft 263 kts 188°
2026-05-07 19:38 57.55332 12.00832 4770 ft 261 kts 165°
2026-05-07 19:38 57.53769 12.02404 4419 ft 260 kts 136°
2026-05-07 19:39 57.52731 12.05102 3811 ft 258 kts 118°
2026-05-07 19:39 57.51935 12.08080 3534 ft 255 kts 116°
2026-05-07 19:39 57.51333 12.11107 3400 ft 246 kts 97°
2026-05-07 19:39 57.51431 12.13204 3309 ft 239 kts 70°
2026-05-07 19:40 57.52857 12.15975 3140 ft 225 kts 26°
2026-05-07 19:40 57.54271 12.17164 2886 ft 221 kts 24°
2026-05-07 19:40 57.55623 12.18330 2591 ft 208 kts 25°
2026-05-07 19:40 57.56889 12.19466 2374 ft 194 kts 25°
2026-05-07 19:41 57.58041 12.20511 2195 ft 177 kts 24°
2026-05-07 19:41 57.58751 12.21148 2039 ft 167 kts 23°
2026-05-07 19:41 57.60103 12.22343 1606 ft 154 kts 24°
2026-05-07 19:41 57.61023 12.23165 1373 ft 144 kts 24°
2026-05-07 19:42 57.61902 12.23997 1156 ft 139 kts 25°
2026-05-07 19:42 57.62759 12.24772 957 ft 136 kts 23°
2026-05-07 19:42 57.63613 12.25550 784 ft 137 kts 24°
2026-05-07 19:42 57.64467 12.26329 623 ft 137 kts 24°
2026-05-07 19:43 57.65034 12.26844 518 ft 137 kts 24°
2026-05-07 19:43 57.65792 12.27530 504 ft 98 kts 26°
2026-05-07 19:43 57.66261 12.27958 510 ft 58 kts 26°
2026-05-07 19:43 57.66569 12.28246 512 ft 37 kts 31°
2026-05-07 19:44 57.66751 12.28674 513 ft 24 kts 56°
2026-05-07 19:44 57.66865 12.28857 513 ft 21 kts 26°
2026-05-07 19:44 57.66997 12.28975 514 ft 16 kts 26°
2026-05-07 19:44 57.67038 12.29038 514 ft 11 kts 64°
2026-05-07 19:45 57.67016 12.29178 516 ft 12 kts 116°
2026-05-07 19:45 57.66983 12.29332 516 ft 10 kts 89°
2026-05-07 19:45 57.67045 12.29413 516 ft 13 kts 25°
2026-05-07 19:45 57.67067 12.29496 516 ft 9 kts 118°
2026-05-07 19:46 57.67050 12.29558 516 ft 2 kts 115°
2026-05-07 19:46 57.67046 12.29571 516 ft 0 kts 116°